This is the latest recevied weather packets stored in our database for station/object KC9GSD. If no packets are shown the sender has not sent any weather packets the latest 10 day(s).
| Time | Temp. | Humidity | Pressure | Rain* | Wind** | Luminosity | Snow |
|---|---|---|---|---|---|---|---|
| 1777976131 | 12.22° C | 80% | 1012.7 hPa | 0 mm | - | 0 W/m² | - |
| 1777975827 | 12.22° C | 82% | 1012.6 hPa | 0 mm | - | 0 W/m² | - |
| 1777975525 | 12.78° C | 81% | 1012.8 hPa | 0 mm | - | 0 W/m² | - |
| 1777975221 | 12.78° C | 80% | 1012.8 hPa | 0 mm | - | 0 W/m² | - |
| 1777974917 | 12.78° C | 80% | 1013 hPa | 0 mm | - | 0 W/m² | - |
| 1777974614 | 12.78° C | 79% | 1013 hPa | 0 mm | - | 0 W/m² | - |
| 1777974311 | 12.78° C | 78% | 1012.8 hPa | 0 mm | - | 0 W/m² | - |
| 1777974007 | 12.78° C | 80% | 1012.9 hPa | 0 mm | - | 0 W/m² | - |
| 1777973703 | 13.33° C | 76% | 1012.7 hPa | 0 mm | - | 0 W/m² | - |
| 1777973401 | 12.78° C | 77% | 1012.9 hPa | 0 mm | - | 0 W/m² | - |
| 1777973098 | 13.33° C | 77% | 1012.7 hPa | 0 mm | - | 0 W/m² | - |
| 1777972796 | 13.33° C | 75% | 1012.8 hPa | 0 mm | - | 0 W/m² | - |
| 1777972493 | 13.33° C | 76% | 1012.9 hPa | 0 mm | - | 0 W/m² | - |
| 1777972191 | 12.78° C | 74% | 1012.9 hPa | 0 mm | - | 0 W/m² | - |
| 1777971889 | 12.78° C | 78% | 1013 hPa | 0 mm | - | 0 W/m² | - |
| 1777971586 | 12.78° C | 77% | 1013.1 hPa | 0 mm | - | 0 W/m² | - |
| 1777971284 | 12.78° C | 76% | 1013.1 hPa | 0 mm | - | 0 W/m² | - |
| 1777970982 | 12.78° C | 76% | 1013.2 hPa | 0 mm | - | 0 W/m² | - |
| 1777970680 | 12.78° C | 76% | 1013.2 hPa | 0 mm | - | 0 W/m² | - |
| 1777970377 | 12.78° C | 76% | 1013 hPa | 0 mm | - | 0 W/m² | - |
| 1777970074 | 12.78° C | 79% | 1013.4 hPa | 0 mm | - | 0 W/m² | - |
| 1777969771 | 12.78° C | 77% | 1013.2 hPa | 0 mm | - | 0 W/m² | - |
| 1777969466 | 12.22° C | 76% | 1013.3 hPa | 0 mm | - | 0 W/m² | - |
| 1777969164 | 12.22° C | 76% | 1013.3 hPa | 0 mm | - | 0 W/m² | - |
| 1777968861 | 11.67° C | 80% | 1013.4 hPa | 0 mm | - | 0 W/m² | - |
* Rain latest hour (hover to see other rain measurements)
** Current wind speed in m/s (hover to see current wind gust speed)